{"data":{"norad_id":53782,"intl_designator":"2022-111K","name":"STARLINK-4679","alt_names":[],"object_type":"PAYLOAD","status":"ACTIVE","operator":null,"country":"US","launch_date":"2022-09-11","launch_site_code":"AFETR","launch_vehicle":null,"mission":null,"orbit_class":"UNKNOWN","rcs_meters":null,"size_class":null,"mass_kg":null,"dimensions":null,"purposes":["comms"],"wikipedia_slug":null,"has_3d_model":false,"image_url":null,"decayed_at":null,"tle_current":{"epoch":"2026-07-01T05:29:15.127584Z","epoch_age_seconds":7105947,"freshness":"OLD","line1":"1 53782U 22111K   26182.22864731  .05804301  12250-4  52677-3 0  9999","line2":"2 53782  53.2000  82.4175 0009210 248.6106 111.3959 16.38016233211414","mean_motion":16.38016233,"eccentricity":0.000921,"inclination_deg":53.2,"raan_deg":82.4175,"arg_perigee_deg":248.6106,"mean_anomaly_deg":111.3959,"bstar":0.00052677,"rev_number":21141,"period_min":87.911216689389,"perigee_km":165.05309193447,"apogee_km":177.11675872092,"semimajor_km":6549.2219253277,"source":"CELESTRAK","updated_at":"2026-07-01T09:00:54.708068Z"}}}